Regional Weather Roundup
Issued by NWS Little Rock, AR

Home | Current Version | Previous Version | Text Only | Print | Product List | Glossary On
Versions: 1 2 3 4 5 6 7 8 9 10 11 12 13 14 15 16 17 18 19 20 21 22 23 24 25 26 27 28 29 30 31 32
000
ASUS44 KLZK 231205
RWRLZK

WEATHER ROUNDUP FOR ARKANSAS
NATIONAL WEATHER SERVICE LITTLE ROCK AR
600 AM CST THU NOV 23 2017

NOTE: "FAIR" INDICATES FEW OR NO CLOUDS BELOW 12,000 FEET WITH NO
SIGNIFICANT WEATHER AND/OR OBSTRUCTIONS TO VISIBILITY.

ARZ001-003-010-029-231300-
NORTHWEST ARKANSAS

CITY           SKY/WX    TMP DP  RH WIND       PRES   REMARKS
FAYETTEVILLE   CLOUDY    26  24  92 CALM      30.17S
6HR MIN TEMP:  25; 6HR MAX TEMP:  28;

FORT SMITH     CLOUDY    32  27  81 CALM      30.19F
6HR MIN TEMP:  29; 6HR MAX TEMP:  37;

HARRISON       CLOUDY    32  23  69 CALM      30.14F
6HR MIN TEMP:  30; 6HR MAX TEMP:  35;

BENTONVILLE    CLOUDY    31  24  75 S3        30.17S
6HR MIN TEMP:  29; 6HR MAX TEMP:  32;

ROGERS         CLEAR     31  25  78 S5        30.15F WCI  26
6HR MIN TEMP:  31; 6HR MAX TEMP:  34;

SILOAM SPGS    CLOUDY    27  23  85 SE5       30.16S WCI  22
6HR MIN TEMP:  26; 6HR MAX TEMP:  31;

HIGHFILL       CLOUDY    30  23  75 CALM      30.15S
6HR MIN TEMP:  27; 6HR MAX TEMP:  31;

SPRINGDALE     CLEAR     32  25  74 CALM      30.17
$$

ARZ004-005-016-231300-
NORTH CENTRAL ARKANSAS

CITY           SKY/WX    TMP DP  RH WIND       PRES   REMARKS
BATESVILLE     CLOUDY    26  23  88 CALM      30.20S
6HR MIN TEMP:  26; 6HR MAX TEMP:  31;

FLIPPIN        CLOUDY    26  23  88 CALM      30.18F
6HR MIN TEMP:  26; 6HR MAX TEMP:  30;

MTN HOME       CLOUDY    28  21  75 CALM      30.15F
6HR MIN TEMP:  27; 6HR MAX TEMP:  33;

$$

ARZ040-041-231300-
WEST CENTRAL ARKANSAS

CITY           SKY/WX    TMP DP  RH WIND       PRES   REMARKS
MENA           CLOUDY    30  28  93 CALM      30.18S
MOUNT IDA      CLOUDY    25  23  92 CALM      30.16S
6HR MIN TEMP:  25; 6HR MAX TEMP:  28;

$$

ARZ009-017-025-026-028-231300-
NORTHEAST ARKANSAS

CITY           SKY/WX    TMP DP  RH WIND       PRES   REMARKS
JONESBORO      CLOUDY    27  24  89 CALM      30.20F
6HR MIN TEMP:  27; 6HR MAX TEMP:  32;

NEWPORT        CLOUDY    26  24  92 CALM      30.22R
6HR MIN TEMP:  25; 6HR MAX TEMP:  31;

WALNUT RIDGE     N/A     25  23  92 CALM      30.20F
6HR MIN TEMP:  25; 6HR MAX TEMP:  32;

BLYTHEVILLE    CLEAR     27  26  96 NW3       30.21S
6HR MIN TEMP:  25; 6HR MAX TEMP:  29;

$$

ARZ022-023-033-042-044-231300-
CENTRAL ARKANSAS

CITY           SKY/WX    TMP DP  RH WIND       PRES   REMARKS
LITTLE ROCK    PTCLDY    30  28  92 W3        30.22R
6HR MIN TEMP:  29; 6HR MAX TEMP:  32;

N LITTLE ROCK    N/A     33  24  69 CALM      30.23S
6HR MIN TEMP:  32; 6HR MAX TEMP:  35;

JACKSONVILLE   PTCLDY    28  24  86 CALM      30.20R
6HR MIN TEMP:  25; 6HR MAX TEMP:  30;

SEARCY         CLOUDY    25  25 100 CALM      30.22S
6HR MIN TEMP:  25; 6HR MAX TEMP:  29;

HOT SPRINGS    PTCLDY    30  28  92 CALM      30.20F
6HR MIN TEMP:  29; 6HR MAX TEMP:  32;

RUSSELLVILLE   PTCLDY    28  27  96 CALM      30.19S
6HR MIN TEMP:  27; 6HR MAX TEMP:  29;

CLINTON        FAIR      27  25  93 CALM      30.21S
$$

ARZ036-231300-
EAST ARKANSAS

CITY           SKY/WX    TMP DP  RH WIND       PRES   REMARKS
WEST MEMPHIS   CLOUDY    25  25 100 NW3       30.20S
6HR MIN TEMP:  24; 6HR MAX TEMP:  30;

$$

ARZ050-053-066-070-073-231300-
SOUTHWEST ARKANSAS

CITY           SKY/WX    TMP DP  RH WIND       PRES   REMARKS
ARKADELPHIA    FAIR      23  21  92 CALM      30.22F
6HR MIN TEMP:  21; 6HR MAX TEMP:  24;

CAMDEN         MOCLDY    28  25  86 CALM      30.22S
TEXARKANA      CLOUDY    30  28  92 CALM      30.20S
6HR MIN TEMP:  29; 6HR MAX TEMP:  36;

EL DORADO      MOCLDY    30  28  92 CALM      30.21S
6HR MIN TEMP:  26; 6HR MAX TEMP:  31;

DE QUEEN       PTCLDY    29  27  92 CALM      30.19S
6HR MIN TEMP:  27; 6HR MAX TEMP:  31;

$$

ARZ056-057-069-231300-
SOUTHEAST ARKANSAS

CITY           SKY/WX    TMP DP  RH WIND       PRES   REMARKS
PINE BLUFF     PTCLDY    27  25  92 CALM      30.21S
6HR MIN TEMP:  24; 6HR MAX TEMP:  30;

STUTTGART      CLOUDY    28  27  96 N5        30.22R WCI  23
6HR MIN TEMP:  28; 6HR MAX TEMP:  31;

MONTICELLO     PTCLDY    29  24  82 N3        30.20F
6HR MIN TEMP:  27; 6HR MAX TEMP:  31;


$$






USA.gov is the U.S. government's official web portal to all federal, state and local government web resources and services.